GW1640 Weather Reports


time (UTC)temp
C
wind
direction
speed
KPH
gust
KPH
rain 1hr
cm
rain 24hr
cm
rain mn
cm
humidity
%
barometer
mb
20260507070021 13 167 12.9 24.1 0.00 0.28 0.00 78 1009.4
20260507065015 12 169 9.7 17.7 0.00 0.28 0.00 81 1009.3
20260507064030 12 172 9.7 20.9 0.00 0.28 0.00 81 1009.2
20260507063025 12 173 9.7 17.7 0.00 0.28 0.00 83 1009.1
20260507062020 11 173 8.0 14.5 0.00 0.28 0.00 84 1009.1
20260507061015 11 174 11.3 22.5 0.00 0.28 0.00 84 1009.0
20260507060051 11 174 9.7 16.1 0.00 0.28 0.00 85 1009.0
20260507054020 11 174 9.7 20.9 0.00 0.28 0.00 87 1008.6
20260507053035 11 173 8.0 14.5 0.00 0.28 0.00 88 1008.6
20260507052031 11 173 8.0 14.5 0.00 0.28 0.00 89 1008.4
20260507051025 11 173 6.4 12.9 0.00 0.28 0.00 89 1008.4
20260507050121 11 173 8.0 14.5 0.00 0.28 0.00 90 1008.2
20260507045015 11 173 8.0 17.7 0.00 0.28 0.00 90 1008.1
20260507044030 11 173 9.7 16.1 0.00 0.28 0.00 91 1008.0
20260507043025 11 173 11.3 24.1 0.00 0.28 0.00 93 1007.8
20260507042020 11 173 8.0 16.1 0.00 0.28 0.00 93 1007.6
20260507041054 11 172 6.4 12.9 0.00 0.28 0.00 94 1007.7
20260507040030 10 172 6.4 14.5 0.00 0.28 0.00 93 1007.7
20260507035025 10 171 4.8 6.4 0.00 0.28 0.00 92 1007.8
20260507034020 11 172 4.8 9.7 0.00 0.28 0.00 93 1007.6
20260507033015 11 172 9.7 14.5 0.00 0.28 0.00 93 1007.5
20260507032031 11 173 6.4 12.9 0.00 0.28 0.00 94 1007.4
20260507031026 11 173 6.4 11.3 0.00 0.28 0.00 94 1007.4
20260507030021 11 173 6.4 14.5 0.00 0.28 0.00 94 1007.4
20260507025015 11 173 3.2 6.4 0.00 0.28 0.00 94 1007.3
20260507024030 11 173 8.0 17.7 0.00 0.28 0.00 94 1007.4
20260507023025 10 173 6.4 12.9 0.00 0.25 0.00 95 1007.4
20260507022022 10 173 4.8 12.9 0.00 0.25 0.00 95 1007.3
20260507021016 10 173 4.8 6.4 0.00 0.25 0.00 95 1007.4
20260507020031 10 173 1.6 4.8 0.00 0.25 0.00 94 1007.3
20260507015026 10 173 1.6 3.2 0.00 0.25 0.00 93 1007.3
20260507014021 10 174 3.2 4.8 0.00 0.25 0.00 92 1007.2
20260507013016 10 174 4.8 6.4 0.00 0.25 0.00 92 1007.0
20260507012051 10 174 3.2 4.8 0.00 0.25 0.00 92 1007.0
20260507011026 10 174 4.8 9.7 0.00 0.25 0.00 92 1006.9
20260507010021 10 174 3.2 6.4 0.00 0.25 0.00 92 1007.0
20260507005016 10 174 4.8 9.7 0.00 0.25 0.00 92 1006.7
20260507004031 10 174 6.4 12.9 0.00 0.25 0.00 92 1006.6
20260507003027 11 173 4.8 9.7 0.00 0.25 0.00 92 1006.5
20260507002121 11 173 6.4 12.9 0.00 0.25 0.00 92 1006.6
20260507001136 11 173 8.0 14.5 0.00 0.25 0.00 94 1006.7
20260507000031 11 172 11.3 20.9 0.00 0.25 0.00 95 1006.7
20260506235026 11 172 8.0 16.1 0.00 0.25 0.00 95 1006.7
20260506233016 11 171 1.6 6.4 0.00 0.25 0.00 93 1006.4
20260506232031 11 171 1.6 4.8 0.00 0.25 0.00 92 1006.2
20260506231025 11 170 3.2 4.8 0.00 0.25 0.00 92 1006.1
20260506230021 11 169 4.8 6.4 0.00 0.25 0.00 92 1005.9
20260506225015 12 168 3.2 4.8 0.00 0.25 0.00 92 1006.0
20260506224031 12 167 1.6 3.2 0.00 0.25 0.00 92 1005.9
20260506223026 12 0.0 0.0 0.00 0.25 0.00 92 1005.9
20260506222022 12 167 1.6 3.2 0.00 0.25 0.00 93 1006.0
20260506221016 11 167 3.2 6.4 0.00 0.25 0.00 93 1006.2
20260506220031 11 167 6.4 12.9 0.00 0.25 0.25 95 1006.2
20260506215026 11 167 4.8 6.4 0.00 0.25 0.25 91 1006.0
20260506214021 12 167 1.6 3.2 0.00 0.25 0.25 90 1005.7
20260506213016 12 168 3.2 4.8 0.00 0.25 0.25 90 1005.7
20260506212031 12 202 1.6 3.2 0.00 0.25 0.25 90 1005.7
20260506211145 12 232 1.6 4.8 0.00 0.25 0.25 90 1005.6
20260506210020 12 279 6.4 11.3 0.00 0.25 0.25 91 1005.5
20260506205035 12 271 8.0 12.9 0.00 0.25 0.25 92 1005.5
20260506204030 13 264 12.9 24.1 0.03 0.25 0.25 92 1005.4
20260506203025 12 266 9.7 20.9 0.10 0.25 0.25 93 1005.2
20260506202119 12 254 6.4 11.3 0.10 0.25 0.25 92 1005.0
20260506201055 12 237 0.0 3.2 0.13 0.25 0.25 89 1004.7
20260506200029 12 229 4.8 6.4 0.13 0.25 0.25 90 1004.6
20260506195024 13 140 3.2 4.8 0.10 0.28 0.25 88 1004.5
20260506194019 13 121 8.0 16.1 0.10 0.38 0.23 89 1004.6
20260506193034 13 111 11.3 17.7 0.03 0.48 0.18 89 1004.7
20260506192029 14 118 11.3 16.1 0.00 0.71 0.15 86 1004.7
20260506191025 14 122 8.0 12.9 0.00 0.86 0.15 84 1004.6
20260506190019 15 157 6.4 11.3 0.00 0.86 0.15 83 1004.6
20260506185034 15 162 6.4 14.5 0.00 0.86 0.15 83 1004.2
20260506184129 15 170 3.2 4.8 0.00 0.86 0.15 82 1003.7
20260506183024 15 20 1.6 3.2 0.00 0.89 0.15 82 1003.3
20260506182138 15 327 0.0 1.6 0.00 1.07 0.15 79 1003.2
20260506181033 15 326 3.2 6.4 0.00 1.63 0.15 80 1003.0
20260506180028 16 337 3.2 6.4 0.00 2.03 0.15 77 1002.8
20260506175023 16 103 3.2 4.8 0.00 2.16 0.15 75 1002.8
20260506174138 16 7 1.6 3.2 0.00 2.21 0.15 73 1002.7
20260506173033 17 360 4.8 9.7 0.00 2.21 0.15 70 1002.7
20260506172127 16 61 3.2 4.8 0.00 2.24 0.15 73 1002.6
20260506171022 17 24 6.4 11.3 0.00 2.26 0.15 74 1002.6
20260506170018 17 352 4.8 6.4 0.00 2.29 0.15 73 1002.5
20260506165032 17 4 3.2 4.8 0.00 2.36 0.15 71 1002.5
20260506163022 17 314 1.6 4.8 0.00 2.39 0.15 69 1002.5
20260506162017 18 331 4.8 11.3 0.00 2.39 0.15 67 1002.7
20260506161033 18 141 1.6 6.4 0.13 2.39 0.15 72 1002.6
20260506160027 18 83 3.2 6.4 0.13 2.39 0.15 74 1002.7
20260506155022 17 67 4.8 6.4 0.13 2.39 0.15 78 1002.9
20260506154017 17 51 4.8 6.4 0.13 2.39 0.15 77 1003.0
20260506153032 16 49 1.6 3.2 0.13 2.39 0.15 79 1003.4
20260506152027 17 50 3.2 6.4 0.10 2.39 0.13 76 1003.6
20260506151022 17 97 3.2 4.8 0.00 2.29 0.03 75 1003.5
20260506150016 17 69 6.4 11.3 0.00 2.29 0.03 74 1003.6
20260506145031 17 47 3.2 6.4 0.03 2.29 0.03 68 1003.7
20260506144024 18 18 4.8 9.7 0.03 2.29 0.03 69 1003.7
20260506143017 17 6 4.8 9.7 0.03 2.29 0.03 69 1003.7
20260506142032 17 338 6.4 9.7 0.03 2.29 0.03 75 1003.9
20260506141028 17 310 3.2 4.8 0.03 2.29 0.03 74 1003.9
20260506140022 17 122 6.4 12.9 0.03 2.29 0.03 75 1004.1
20260506135017 18 123 12.9 22.5 0.00 2.26 0.00 72 1004.4
20260506134032 18 105 9.7 14.5 0.00 2.26 0.00 64 1004.3
20260506133030 19 124 3.2 11.3 0.00 2.26 0.00 57 1004.3
20260506132021 19 332 4.8 9.7 0.00 2.26 0.00 55 1004.2
20260506131016 20 360 4.8 9.7 0.00 2.26 0.00 54 1004.1
20260506130031 20 319 6.4 12.9 0.00 2.26 0.00 52 1004.2
20260506125146 20 72 4.8 11.3 0.00 2.26 0.00 53 1004.2
20260506124021 21 245 3.2 4.8 0.00 2.26 0.00 51 1004.4
20260506123036 21 315 1.6 4.8 0.00 2.26 0.00 52 1004.5
20260506122031 21 287 3.2 11.3 0.00 2.26 0.00 53 1004.5
20260506121026 20 218 1.6 4.8 0.00 2.26 0.00 55 1004.8
20260506120021 20 274 3.2 4.8 0.00 2.26 0.00 55 1004.8
20260506115016 21 268 4.8 9.7 0.00 2.26 0.00 55 1004.8
20260506114031 20 227 4.8 6.4 0.00 2.26 0.00 56 1004.9
20260506113026 20 39 4.8 9.7 0.00 2.26 0.00 57 1005.0
20260506112021 20 336 3.2 9.7 0.00 2.26 0.00 56 1005.0
20260506111016 20 238 6.4 11.3 0.00 2.26 0.00 58 1005.2
20260506110031 20 80 4.8 16.1 0.00 2.26 0.00 59 1005.1
20260506105125 20 240 6.4 12.9 0.00 2.26 0.00 58 1005.3
20260506104020 20 235 6.4 14.5 0.00 2.26 0.00 61 1005.3
20260506103015 20 248 6.4 14.5 0.00 2.26 0.00 61 1005.4
20260506102030 19 262 4.8 17.7 0.00 2.26 0.00 64 1005.5
20260506101025 18 227 4.8 11.3 0.00 2.26 0.00 66 1005.7
20260506100020 18 263 8.0 14.5 0.00 2.26 0.00 66 1005.8
20260506095135 17 264 8.0 16.1 0.00 2.26 0.00 67 1005.8
20260506094030 17 252 9.7 16.1 0.00 2.26 0.00 70 1005.9
20260506092020 18 238 6.4 11.3 0.00 2.26 0.00 70 1005.9
20260506091016 17 265 6.4 12.9 0.00 2.26 0.00 70 1005.9
20260506090131 17 245 9.7 17.7 0.00 2.26 0.00 71 1005.9
20260506085126 16 236 9.7 17.7 0.00 2.26 0.00 72 1005.9
20260506084022 16 234 8.0 17.7 0.00 2.26 0.00 76 1005.9
20260506083016 16 250 8.0 17.7 0.00 2.26 0.00 75 1005.8
20260506082051 15 231 6.4 14.5 0.00 2.26 0.00 78 1005.9
20260506081126 15 255 8.0 14.5 0.00 2.26 0.00 76 1005.8
20260506073025 16 242 8.0 16.1 0.00 2.26 0.00 78 1005.8
20260506072019 16 241 11.3 22.5 0.00 2.26 0.00 79 1005.7
20260506071034 15 250 9.7 17.7 0.00 2.26 0.00 81 1005.7